SCP
1 0 0 0 0 0 0 0 0 0 0 0 0 0 0 0 0 0 0 0 0 0 0 0 0 0 0 0 0 0 0 1 1 1 0 0 1 1 1 1 1 1 1 1 1 1 1 1 1
0 0 0 0 0 0 0 0 0 0 0 0 0 0 0 0 0 0 0 0 0 0 0 0 0 0 0 0 0 0 0 1 1 1 0 0 1 1 1 1 1 1 1 1 1 1 1 1 1
0 0 0 0 0 0 0 0 0 0 0 0 0 0 0 0 0 0 0 0 0 0 0 0 0 0 0 0 0 0 0 1 1 1 1 0 1 1 1 1 1 1 1 1 1 1 1 1 1
0 0 0 0 0 0 0 0 0 0 0 0 0 0 0 0 0 0 0 0 0 0 0 0 0 0 0 0 0 1 1 1 1 1 1 1 1 1 1 1 1 1 1 1 1 1 2 2 2
0 0 0 0 0 0 0 0 0 0 0 0 0 0 0 0 0 0 0 0 0 0 0 0 0 0 0 0 0 1 1 1 1 1 1 1 1 1 1 1 1 1 1 1 1 1 1 2 2
0 0 0 0 0 0 0 0 0 0 0 0 0 0 0 0 0 0 0 0 0 0 0 0 0 0 0 0 0 0 1 1 1 1 1 1 1 1 1 1 1 1 1 1 1 1 1 1 1
0 0 0 0 0 0 0 0 0 0 0 0 0 0 0 0 0 0 0 0 0 0 0 0 0 0 0 0 0 0 0 1 1 1 1 1 1 1 1 1 1 1 1 1 1 1 1 1 1
0 0 0 0 0 0 0 0 0 0 0 0 0 0 0 0 0 0 0 0 0 0 0 0 0 0 0 0 0 0 0 1 1 1 1 0 0 1 1 1 1 1 1 1 1 1 1 1 1
0 0 0 0 0 0 0 0 0 0 0 0 0 0 0 0 0 0 0 0 0 0 0 0 0 0 0 0 0 0 0 1 1 1 1 0 0 0 0 0 0 1 1 1 1 1 1 1 1
0 0 0 0 0 0 0 0 0 0 0 0 0 0 0 0 0 0 0 0 0 0 0 0 0 0 0 0 0 0 0 0 1 1 0 0 0 0 0 0 0 0 0 1 1 1 1 1 0
0 0 0 0 0 0 0 0 0 0 0 0 0 0 0 0 0 0 0 0 0 0 0 0 0 0 0 0 0 0 0 0 0 0 0 0 0 0 0 0 0 0 0 0 0 0 0 0 0
0 0 0 0 0 0 0 0 0 0 0 0 0 0 0 0 0 0 0 0 0 0 0 0 0 0 0 0 0 0 0 0 0 0 0 0 0 0 0 0 0 0 0 0 0 0 0 0 0
0 0 0 0 0 0 0 0 0 0 0 0 0 0 0 0 0 0 0 0 0 0 0 0 0 0 0 0 0 0 0 0 0 0 0 0 0 0 0 0 0 0 0 0 0 0 0 0 0
0 0 0 0 0 0 0 0 0 0 0 0 0 0 0 0 0 0 0 0 0 0 0 0 0 0 0 0 0 0 0 0 0 0 0 0 0 0 0 0 0 0 0 0 0 0 0 0 0
0 0 0 0 0 0 0 0 0 0 0 0 0 0 0 0 0 0 0 0 0 0 0 0 0 0 0 0 0 0 0 0 0 0 0 0 0 0 0 0 0 0 0 0 0 0 0 0 0
0 0 0 0 0 0 0 0 0 0 0 0 0 0 0 0 0 0 0 0 0 0 0 0 0 0 0 0 0 0 0 0 0 0 0 0 0 0 0 0 0 0 0 0 0 0 0 0 0
0 0 0 0 0 0 0 0 0 0 0 0 0 0 0 0 0 0 0 0 0 0 0 0 0 0 0 0 0 0 0 0 0 0 0 0 0 0 0 0 0 0 0 0 0 0 0 0 0
0 0 0 0 0 0 0 0 0 0 0 0 0 0 0 0 0 0 0 0 0 0 0 0 0 0 0 0 0 0 0 0 0 0 0 0 0 0 0 0 0 0 0 0 0 0 0 0 0
0 0 0 0 0 0 0 0 0 0 0 0 0 0 0 0 0 0 0 0 0 0 0 0 0 0 0 0 0 0 0 0 0 0 0 0 0 0 0 1 0 0 0 0 0 0 0 0 0
0 0 0 0 0 0 0 0 0 0 0 0 0 0 0 0 0 0 0 0 0 0 0 0 0 0 0 0 0 0 0 0 0 0 0 0 0 0 0 0 0 0 0 0 0 0 0 0 0
0 0 0 0 0 0 0 0 0 0 0 0 0 0 0 0 0 0 0 0 0 0 0 0 0 0 0 0 0 0 0 0 0 0 0 0 0 0 0 0 0 0 0 0 0 0 0 0 0
0 0 0 0 0 0 0 0 0 0 0 0 0 0 0 0 0 0 0 0 0 0 0 0 0 0 0 0 0 0 0 0 0 0 0 0 0 0 0 0 0 0 0 0 0 0 0 0 0
0 0 0 0 0 0 0 0 0 0 0 0 0 0 0 0 0 0 0 0 0 0 0 0 0 0 0 0 0 0 0 0 0 0 0 0 0 0 0 0 0 0 0 0 0 0 0 0 0
0 0 0 0 0 0 0 0 0 0 0 0 0 0 0 0 0 0 0 0 0 0 0 0 0 0 0 0 0 0 0 0 0 0 0 0 0 0 0 0 0 0 0 0 0 0 0 0 0
0 0 0 0 0 0 0 0 0 0 0 0 0 0 0 0 0 0 0 0 0 0 0 0 0 0 0 0 0 0 0 0 0 0 0 0 0 0 0 0 0 0 0 0 0 0 0 0 0
0 0 0 0 0 0 0 0 0 0 0 0 0 0 0 0 0 0 0 0 0 0 0 0 0 0 0 0 0 0 0 0 0 0 0 0 0 0 0 0 0 0 0 0 0 0 0 0 0
0 0 0 0 0 0 0 0 0 0 0 0 0 0 0 0 0 0 0 0 0 0 0 0 0 0 0 0 0 0 0 0 0 0 0 0 0 0 0 0 0 0 0 0 0 0 0 0 0
0 0 0 0 0 0 0 0 0 0 0 0 0 0 0 0 0 0 0 0 0 0 0 0 0 0 0 0 0 0 0 0 0 0 0 0 0 0 0 0 0 0 0 0 0 0 0 0 0
0 0 0 0 0 0 0 0 0 0 0 0 0 0 0 0 0 0 0 0 0 0 0 0 0 0 0 0 0 0 0 0 0 0 0 0 0 0 0 0 0 0 0 0 0 0 0 0 0
0 0 0 0 0 0 0 0 0 0 0 0 0 0 0 0 0 0 0 0 0 0 0 0 0 0 0 0 0 0 0 0 0 0 0 0 0 0 0 0 0 0 0 0 0 0 0 0 0
Wind_Speed
2 3 3 4 7 6 2 1 1 1 2 2 3 5 5 4 2 1 2 1 2 1 1 1 2 2 3 3 4 5 5 6 6 6 6 6 6 6 7 6 6 7 7 8 8 8 8 9 8
1 2 4 5 6 4 1 1 0 1 3 3 3 4 4 3 1 2 0 1 2 2 1 1 3 3 3 4 4 5 5 6 6 5 5 5 5 6 6 6 6 7 7 7 8 8 8 8 8
2 3 4 5 4 3 1 1 1 2 2 1 3 3 3 2 1 2 2 3 3 1 1 0 3 4 3 4 5 5 5 6 6 6 5 5 5 5 6 6 7 7 7 7 7 8 8 8 9
3 5 5 6 3 1 2 2 2 2 2 3 3 3 2 1 1 2 3 4 3 1 1 0 3 4 4 4 5 5 5 6 6 6 6 6 6 6 6 7 7 7 7 7 7 8 8 8 9
4 5 6 4 2 1 0 1 2 2 2 2 3 3 1 3 2 3 4 4 3 2 0 0 2 3 4 4 4 4 4 5 6 6 6 6 6 6 6 7 7 7 7 8 8 8 8 8 8
5 5 5 2 1 1 1 1 2 3 3 2 3 3 0 2 2 3 4 3 3 2 1 1 1 3 3 3 4 4 4 5 5 6 6 6 7 7 6 6 7 7 7 8 8 8 8 8 8
5 5 3 2 1 1 0 1 3 3 3 3 5 4 1 1 1 3 3 3 2 2 2 2 2 2 3 3 4 4 5 5 6 6 6 7 7 8 7 7 7 7 8 8 8 8 8 8 8
4 5 3 1 1 1 1 1 1 3 2 2 4 5 3 3 3 4 4 3 2 2 2 2 2 2 2 2 3 4 5 6 6 6 7 7 7 7 7 7 7 8 8 8 8 8 8 8 9
4 5 2 3 3 2 1 2 0 1 4 2 1 2 3 6 6 5 4 3 2 1 1 1 1 2 1 1 2 4 5 6 6 5 7 6 4 4 4 6 7 7 8 8 9 9 9 9 9
4 3 3 3 4 3 2 2 2 3 2 1 1 2 4 7 6 6 4 2 1 1 0 1 1 1 1 2 2 2 3 3 3 3 4 3 3 3 4 6 7 7 8 9 10 10 10 7 4
3 4 2 1 2 3 2 1 2 5 2 4 5 4 5 6 5 5 4 3 3 2 1 0 1 1 1 1 1 2 2 2 2 3 3 3 3 3 4 3 4 5 6 5 7 7 5 5 4
2 1 2 1 2 2 3 2 2 3 6 5 6 7 6 7 6 6 5 3 2 2 1 1 1 1 1 2 2 1 1 1 1 2 3 2 2 3 3 3 3 3 3 4 4 4 5 5 5
1 1 0 1 1 2 2 2 2 3 3 2 5 6 7 7 6 4 4 3 3 2 2 2 2 2 2 2 1 1 1 1 1 2 2 2 2 2 2 2 3 3 3 3 4 4 5 5 4
1 1 1 1 0 1 2 1 1 4 2 4 6 6 7 7 6 4 4 4 3 3 2 2 3 2 2 2 1 1 1 1 1 2 2 2 2 2 2 3 3 3 3 3 3 4 4 4 4
1 3 4 2 0 0 3 2 3 3 4 4 5 5 5 5 5 5 5 4 4 3 2 2 3 3 3 2 2 2 1 2 2 1 2 2 3 3 3 3 3 2 2 3 4 4 4 4 4
3 3 2 4 0 1 4 4 6 2 6 5 4 4 4 4 5 5 4 3 3 3 3 2 3 3 3 2 2 2 2 2 2 2 2 2 3 3 3 3 2 2 2 3 3 3 4 4 3
3 1 2 4 1 2 3 5 6 1 5 5 5 5 5 4 4 4 4 4 4 4 4 3 3 3 3 3 2 2 2 2 2 2 2 2 2 3 3 2 2 2 3 2 3 3 3 3 3
3 2 2 3 2 2 2 5 6 2 5 6 5 5 5 6 7 5 4 4 4 4 4 4 3 3 3 3 3 2 2 2 2 1 1 2 2 3 3 2 3 3 3 2 3 3 3 2 2
2 2 3 5 3 2 4 6 6 3 3 5 5 6 6 7 6 3 3 4 4 4 4 4 4 3 3 2 2 2 1 1 1 1 1 2 2 2 2 2 2 2 2 2 3 3 3 2 2
2 2 3 4 1 2 3 6 5 3 5 6 7 8 8 6 3 4 3 4 5 5 5 4 4 4 3 2 2 2 2 1 1 1 2 2 2 2 2 3 2 2 2 3 3 3 2 1 1
3 4 4 3 2 1 1 5 4 3 2 2 4 5 6 7 7 5 5 5 5 5 6 5 5 4 4 3 2 3 3 2 2 2 1 1 1 1 2 2 2 2 3 3 3 3 3 2 1
4 5 4 3 1 2 0 3 6 3 3 3 3 3 5 5 6 5 6 6 6 6 5 5 5 5 4 4 4 4 3 2 2 1 0 1 1 1 1 1 2 2 2 2 3 3 2 3 1
5 1 2 2 2 1 1 1 8 2 3 5 5 5 5 5 5 7 7 7 6 6 5 5 5 4 4 4 5 4 3 2 1 1 1 1 1 1 1 1 1 2 2 2 2 2 2 2 2
2 4 4 4 4 1 2 2 7 3 5 4 4 4 5 4 4 5 5 4 4 4 5 5 5 4 4 5 4 5 5 3 3 2 1 0 0 0 0 1 1 1 1 2 2 2 2 2 2
4 5 4 4 3 4 2 2 8 6 5 5 5 5 4 4 4 4 4 5 5 6 6 5 5 5 4 5 5 5 5 5 5 3 3 2 1 1 1 1 1 1 1 2 2 2 1 2 2
2 6 6 3 3 5 2 4 8 5 4 2 2 2 2 3 3 4 5 6 6 6 6 6 6 5 5 5 5 4 5 4 3 4 3 3 2 2 2 2 2 1 1 2 2 1 1 1 1
3 2 5 5 1 2 5 6 8 3 3 2 2 1 2 3 3 4 4 5 6 6 7 8 7 6 6 6 5 4 4 4 4 4 3 2 2 2 2 2 2 2 2 2 2 1 1 1 1
3 6 5 4 2 2 5 4 5 5 4 2 1 2 3 2 2 2 3 4 5 5 5 5 6 7 6 6 5 5 5 5 4 4 4 3 3 2 2 2 2 2 2 2 2 1 2 2 1
2 3 4 4 3 4 3 7 5 5 4 3 4 3 3 3 3 3 2 2 3 3 4 5 5 5 5 5 5 5 5 4 4 4 4 4 3 3 3 3 2 2 2 2 2 2 2 2 1
3 4 6 4 3 3 3 8 4 3 4 3 4 3 2 3 2 2 2 1 2 3 3 4 5 5 6 5 5 5 5 4 4 4 4 4 4 3 3 3 2 3 2 3 3 3 3 3 2
Wind_Direction
46 73 73 57 54 53 47 344 292 16 45 31 58 81 92 90 103 145 257 219 190 170 210 220 117 99 86 72 65 61 64 63 67 74 73 77 84 89 93 94 92 91 93 95 92 89 87 88 89
91 85 56 58 76 71 346 307 62 137 147 137 75 76 79 69 86 122 294 197 145 144 158 147 114 99 86 75 68 63 65 64 65 70 72 76 83 89 93 92 91 89 92 92 93 94 91 91 92
90 59 74 68 85 138 175 236 163 92 112 104 72 57 90 116 140 175 212 155 124 118 108 135 122 107 89 80 76 67 64 65 64 69 73 76 84 91 91 89 88 86 90 92 93 96 94 94 93
78 46 54 69 80 199 194 195 159 114 69 56 92 67 47 347 174 176 143 135 124 114 67 116 119 108 96 80 78 71 67 63 65 70 72 79 86 90 92 91 89 88 89 90 93 94 93 93 93
62 72 62 57 40 340 277 184 138 119 96 68 96 99 19 346 68 118 129 135 136 133 92 40 115 103 93 82 76 68 64 63 65 69 72 80 86 90 92 95 92 89 87 87 91 93 91 90 88
58 67 80 85 4 344 341 137 116 111 114 112 112 118 301 351 95 130 134 137 139 143 124 56 93 98 86 78 78 74 69 66 66 68 71 75 80 82 84 91 93 94 90 90 93 94 93 89 86
95 87 111 134 111 351 197 137 134 132 132 167 145 127 206 277 155 129 119 120 105 95 90 59 39 51 69 71 72 73 69 66 67 71 70 68 71 74 78 84 90 94 93 94 94 93 91 86 85
115 97 86 110 136 251 192 134 150 143 156 136 133 143 197 202 146 109 88 83 81 73 65 54 40 39 35 35 61 68 67 64 63 67 71 67 63 61 64 69 79 88 91 91 90 89 86 82 82
85 78 122 194 174 206 174 129 128 106 103 87 121 170 182 135 123 104 80 63 63 72 33 54 43 38 46 48 54 49 55 56 54 54 61 57 42 37 40 54 72 80 86 89 89 86 83 78 78
82 113 207 204 180 174 167 159 162 101 86 71 52 60 102 117 126 130 132 138 155 211 274 81 84 63 49 59 54 41 42 38 42 47 48 45 41 41 45 48 67 72 78 83 83 80 76 67 59
119 167 206 213 179 157 149 164 143 138 190 203 186 170 135 132 140 152 164 170 191 202 199 123 130 101 89 82 66 52 49 39 40 46 49 52 48 42 40 40 42 50 63 62 67 66 62 62 59
127 218 187 191 144 141 159 154 142 180 218 206 182 160 150 156 168 176 178 184 180 166 179 147 120 101 92 93 78 71 69 64 58 51 54 62 60 53 48 51 44 47 59 70 64 67 67 66 60
109 278 301 174 145 162 135 155 175 234 240 141 134 145 162 174 185 191 187 180 167 172 183 158 138 125 117 99 90 87 81 83 77 70 63 79 82 73 63 58 58 57 66 78 79 76 73 69 62
185 93 2 343 153 165 133 356 109 257 174 136 152 171 180 186 188 185 189 191 185 184 184 149 138 136 117 108 109 106 97 89 81 78 79 89 93 92 81 75 71 63 69 80 86 86 82 72 68
69 45 3 345 351 197 113 349 257 245 134 149 174 184 187 199 192 196 199 195 186 179 167 158 151 132 123 122 117 104 102 101 89 78 82 97 103 102 99 91 84 76 81 86 85 79 77 74 67
53 51 348 303 296 140 122 263 271 209 151 178 192 192 193 207 207 209 199 188 181 161 155 162 146 129 127 123 110 99 97 98 94 83 81 95 106 110 104 102 97 91 89 93 96 86 81 70 63
33 49 272 298 284 137 150 252 282 184 168 192 203 203 203 215 227 223 205 191 186 171 159 151 137 130 129 118 98 90 87 81 81 84 83 91 100 104 105 106 103 100 92 88 105 87 95 92 78
233 236 256 261 264 143 201 254 279 246 186 200 206 206 207 216 228 218 202 191 180 163 155 149 137 123 114 98 83 70 63 56 58 74 87 97 101 105 107 107 104 103 100 87 93 97 82 90 93
193 211 259 259 237 181 229 257 272 256 198 205 211 211 217 227 233 214 195 180 163 156 155 156 146 141 127 111 112 105 95 57 49 54 74 95 110 115 114 113 113 114 117 125 124 115 97 77 84
200 240 269 290 270 183 248 274 275 232 212 210 210 214 217 221 216 209 188 176 176 174 172 167 165 162 162 150 138 131 123 99 75 42 51 67 105 129 137 134 139 135 126 123 129 123 110 84 68
229 207 229 250 335 22 2 316 297 280 254 231 216 214 214 208 207 205 191 186 179 180 182 180 177 172 172 148 110 86 68 52 44 35 29 27 75 104 122 138 141 144 144 153 155 144 137 143 66
248 233 211 204 120 294 65 291 288 275 284 256 239 218 219 212 203 199 192 190 190 192 184 179 173 171 169 156 149 144 145 161 197 184 157 49 80 94 100 122 139 148 149 158 171 154 152 147 151
221 229 175 177 159 344 345 218 284 312 275 259 246 230 222 210 197 197 197 195 191 184 177 176 169 171 170 166 166 159 154 168 143 115 106 74 51 78 96 130 145 153 159 166 164 154 154 153 161
157 77 59 53 76 318 254 191 279 251 235 256 246 235 227 213 202 204 198 181 179 174 169 167 170 178 172 170 170 171 169 164 151 159 158 164 346 3 73 139 151 163 163 173 174 165 164 169 164
87 86 30 3 11 262 273 214 254 260 242 231 234 234 223 206 200 199 189 185 185 181 180 176 177 185 179 176 180 184 180 174 181 186 187 185 195 230 241 199 194 188 186 178 159 158 171 178 177
162 137 151 198 237 283 313 244 258 276 288 252 217 198 185 201 202 204 203 197 193 189 186 183 188 191 185 187 190 186 181 179 189 191 188 196 202 211 209 201 204 200 178 169 152 153 181 168 177
132 160 161 136 167 278 288 292 304 317 354 18 51 95 195 216 214 213 210 203 194 191 193 191 190 193 193 194 189 187 187 187 197 198 193 199 205 201 192 195 197 192 175 168 155 160 179 151 158
143 144 101 112 147 269 297 292 272 300 304 324 303 240 241 232 231 224 210 210 200 196 195 190 192 198 196 191 192 194 196 198 197 191 201 204 204 199 189 193 189 186 184 169 160 169 171 151 172
105 110 114 120 154 164 268 276 241 257 271 261 259 253 239 226 223 220 218 215 193 179 183 192 197 198 196 194 195 195 199 198 193 198 206 201 197 192 197 201 193 191 192 181 170 181 172 169 177
166 163 145 153 205 178 190 266 284 281 285 273 272 277 260 234 227 213 196 163 163 181 190 197 200 202 204 196 193 199 198 191 196 208 209 196 195 199 200 194 192 200 196 188 185 189 184 184 190